DB0MI Weather Reports


Display with metric or nautical units.
time (UTC)temp
F
wind
direction
speed
MPH
gust
MPH
rain 1hr
in
rain 24hr
in
rain mn
in
humidity
%
barometer
mb
20260506034143 51 67 0.0 0.0 0.00 0.22 0.00 93 1005.2
20260506033143 51 67 0.0 0.0 0.00 0.22 0.00 93 1005.4
20260506032143 51 247 0.0 0.0 0.00 0.22 0.00 93 1005.4
20260506031143 51 45 0.0 0.0 0.00 0.22 0.00 93 1005.4
20260506030143 51 157 0.0 0.0 0.00 0.22 0.00 93 1005.6
20260506025143 51 135 0.0 0.0 0.00 0.22 0.00 93 1005.5
20260506024143 50 270 0.0 0.0 0.00 0.22 0.00 93 1005.5
20260506023143 50 157 0.0 0.0 0.00 0.22 0.00 93 1005.5
20260506022143 50 202 0.0 0.0 0.00 0.22 0.00 93 1005.6
20260506021143 50 157 0.0 0.0 0.00 0.22 0.00 93 1005.5
20260506020143 51 247 0.0 0.0 0.00 0.22 0.00 93 1005.6
20260506015143 51 270 0.0 0.0 0.00 0.22 0.00 93 1005.5
20260506014143 51 225 0.0 0.0 0.00 0.22 0.00 93 1005.7
20260506013143 51 112 0.0 0.0 0.00 0.22 0.00 93 1005.8
20260506012143 51 247 0.0 0.0 0.00 0.22 0.00 93 1005.7
20260506011143 51 247 0.0 0.0 0.00 0.22 0.00 93 1005.8
20260506010143 51 202 0.0 0.0 0.00 0.22 0.00 93 1005.9
20260506005143 51 225 0.0 0.0 0.00 0.22 0.00 93 1005.8
20260506004143 51 225 0.0 0.0 0.00 0.22 0.00 93 1006.0
20260506003143 51 112 0.0 0.0 0.00 0.22 0.00 93 1005.9
20260506002143 51 180 0.0 0.0 0.00 0.22 0.00 93 1006.0
20260506001143 51 270 0.0 0.0 0.00 0.22 0.00 93 1005.9
20260506000143 52 180 0.0 0.0 0.00 0.22 0.00 93 1006.1
20260505235143 52 225 0.0 0.0 0.00 0.22 0.00 93 1006.2
20260505234143 52 270 0.0 0.0 0.00 0.22 0.00 93 1006.4
20260505233143 52 180 0.0 0.0 0.02 0.22 0.00 93 1006.4
20260505232143 52 292 0.0 0.0 0.02 0.22 0.00 92 1006.4
20260505231143 52 247 0.0 0.0 0.02 0.22 0.00 93 1006.4
20260505230143 52 247 0.0 0.0 0.04 0.22 0.00 92 1006.4
20260505225143 52 247 0.0 0.0 0.04 0.22 0.00 92 1006.5
20260505224143 52 202 0.0 0.0 0.04 0.22 0.00 92 1006.4
20260505223143 52 180 0.0 0.0 0.02 0.20 0.00 92 1006.6
20260505222143 52 225 0.0 0.0 0.02 0.20 0.00 92 1006.4
20260505221143 53 247 0.0 0.0 0.02 0.20 0.00 92 1006.5
20260505220143 53 247 0.0 0.0 0.00 0.18 0.00 92 1006.5
20260505215143 53 112 0.0 0.0 0.00 0.18 0.00 92 1006.5
20260505214143 53 202 0.0 0.0 0.00 0.18 0.00 92 1006.6
20260505213143 53 135 0.0 0.0 0.00 0.18 0.00 92 1006.6
20260505212143 53 157 0.0 0.0 0.00 0.18 0.00 92 1006.7
20260505211144 53 157 0.0 0.0 0.00 0.18 0.00 92 1006.6
20260505210143 53 90 0.0 0.0 0.00 0.18 0.00 92 1006.7
20260505205144 53 135 0.0 0.0 0.00 0.18 0.00 92 1006.8
20260505204144 53 180 0.0 0.0 0.00 0.18 0.00 92 1006.8
20260505203144 53 180 0.0 0.0 0.00 0.18 0.00 92 1006.8
20260505202144 52 180 0.0 0.0 0.00 0.18 0.00 92 1006.8
20260505201144 52 180 0.0 0.0 0.00 0.18 0.00 91 1006.5
20260505200144 52 180 0.0 0.0 0.00 0.18 0.00 91 1006.5
20260505195144 52 180 0.0 0.0 0.00 0.18 0.00 91 1006.4
20260505194144 52 180 0.0 0.0 0.00 0.18 0.00 91 1006.6
20260505193144 52 180 0.0 0.0 0.00 0.18 0.00 92 1006.3
20260505192144 53 180 0.0 0.0 0.00 0.18 0.00 91 1006.2
20260505191144 53 180 0.0 0.0 0.00 0.18 0.00 91 1006.4
20260505190144 53 180 0.0 0.0 0.00 0.18 0.00 91 1006.4
20260505185144 53 180 0.0 0.0 0.00 0.18 0.00 91 1006.4
20260505184144 53 180 0.0 0.0 0.00 0.18 0.00 91 1006.3
20260505183144 53 180 0.0 0.0 0.00 0.18 0.00 91 1006.1
20260505182144 54 180 0.0 0.0 0.00 0.18 0.00 91 1006.1
20260505181144 54 180 0.0 0.0 0.00 0.18 0.00 91 1006.1
20260505180144 54 180 0.0 0.0 0.00 0.18 0.00 91 1006.1
20260505175144 54 180 0.0 0.0 0.00 0.18 0.00 91 1006.3
20260505174144 55 180 0.0 0.0 0.00 0.18 0.00 90 1006.3
20260505173144 55 180 0.0 0.0 0.00 0.18 0.00 90 1006.6
20260505172144 55 180 0.0 0.0 0.00 0.18 0.00 90 1006.6
20260505171144 55 180 0.0 0.0 0.02 0.18 0.00 90 1006.5
20260505170144 55 180 0.0 0.0 0.02 0.18 0.00 90 1006.7
20260505165144 55 157 0.0 0.0 0.04 0.18 0.00 90 1006.6
20260505164144 55 157 0.0 0.0 0.04 0.18 0.00 90 1006.8
20260505163144 55 180 0.0 0.0 0.06 0.18 0.00 89 1006.9
20260505162144 55 180 0.0 0.0 0.08 0.18 0.00 89 1007.1
20260505161144 55 180 0.0 0.0 0.06 0.16 0.00 89 1007.1
20260505160144 55 225 0.0 0.0 0.08 0.14 0.00 88 1007.4
20260505153144 55 225 0.0 0.0 0.12 0.12 0.00 86 1007.7
20260505152144 56 135 0.0 0.0 0.10 0.10 0.00 85 1007.6
20260505151144 56 247 0.0 0.0 0.10 0.10 0.00 83 1007.7
20260505150144 57 247 0.0 0.0 0.06 0.06 0.00 81 1007.7
20260505140144 64 225 0.0 0.0 0.00 0.00 0.00 70 1007.4
20260505130145 64 247 0.0 0.0 0.00 0.00 0.00 71 1007.8
20260505124145 63 247 0.0 0.0 0.00 0.00 0.00 73 1008.1
20260505123145 63 247 0.0 0.0 0.00 0.00 0.00 72 1008.2
20260505122145 63 247 0.0 0.0 0.00 0.00 0.00 71 1008.1
20260505121145 64 247 0.0 0.0 0.00 0.00 0.00 70 1008.1
20260505120145 64 247 0.0 0.0 0.00 0.00 0.00 69 1008.1
20260505115145 65 247 0.0 0.0 0.00 0.00 0.00 67 1008.2
20260505114145 66 247 0.0 0.0 0.00 0.00 0.00 66 1008.2
20260505113145 66 247 0.0 0.0 0.00 0.00 0.00 65 1008.3
20260505112145 66 270 0.0 0.0 0.00 0.00 0.00 64 1008.4
20260505111145 66 202 0.0 0.0 0.00 0.00 0.00 65 1008.4
20260505110145 66 202 0.0 0.0 0.00 0.00 0.00 65 1008.6
20260505102145 67 202 0.0 0.0 0.00 0.00 0.00 62 1008.6
20260505101145 68 202 0.0 0.0 0.00 0.00 0.00 62 1008.7
20260505100145 70 202 0.0 0.0 0.00 0.00 0.00 59 1008.6
20260505095146 71 202 0.0 0.0 0.00 0.00 0.00 59 1008.7
20260505094145 71 202 0.0 0.0 0.00 0.00 0.00 61 1008.6
20260505093145 69 202 0.0 0.0 0.00 0.00 0.00 63 1008.5
20260505092145 69 202 0.0 0.0 0.00 0.00 0.00 63 1008.5
20260505091145 67 202 0.0 0.0 0.00 0.00 0.00 63 1008.5
20260505090145 69 202 0.0 0.0 0.00 0.00 0.00 61 1008.4
20260505085145 70 202 0.0 0.0 0.00 0.00 0.00 61 1008.3
20260505084146 69 202 0.0 0.0 0.00 0.00 0.00 64 1008.1
20260505083145 68 202 0.0 0.0 0.00 0.00 0.00 67 1008.3
20260505082145 65 202 0.0 0.0 0.00 0.00 0.00 71 1008.2
20260505081145 61 202 0.0 0.0 0.00 0.00 0.00 74 1008.4
20260505080146 60 202 0.0 0.0 0.00 0.00 0.00 74 1008.5
20260505075145 59 202 0.0 0.0 0.00 0.00 0.00 74 1008.7
20260505074145 59 202 0.0 0.0 0.00 0.00 0.00 74 1008.7
20260505073145 59 202 0.0 0.0 0.00 0.00 0.00 75 1008.9
20260505072145 59 202 0.0 0.0 0.00 0.00 0.00 75 1008.8
20260505071145 59 202 0.0 0.0 0.00 0.00 0.00 75 1009.0
20260505070145 58 202 0.0 0.0 0.00 0.00 0.00 75 1009.1
20260505065145 58 202 0.0 0.0 0.00 0.00 0.00 76 1009.0
20260505064145 58 202 0.0 0.0 0.00 0.00 0.00 77 1009.1
20260505063145 58 202 0.0 0.0 0.00 0.00 0.00 76 1009.1
20260505062145 58 202 0.0 0.0 0.00 0.00 0.00 76 1008.9
20260505061145 58 202 0.0 0.0 0.00 0.00 0.00 77 1009.0
20260505060146 57 202 0.0 0.0 0.00 0.00 0.00 78 1009.0
20260505055145 57 202 0.0 0.0 0.00 0.00 0.00 78 1009.0
20260505054146 56 202 0.0 0.0 0.00 0.00 0.00 79 1008.9
20260505053146 55 202 0.0 0.0 0.00 0.00 0.00 79 1008.8
20260505052146 55 202 0.0 0.0 0.00 0.00 0.00 79 1009.0
20260505051146 55 202 0.0 0.0 0.00 0.00 0.00 79 1008.8
20260505050146 55 202 0.0 0.0 0.00 0.00 0.00 79 1008.9
20260505041146 54 202 0.0 0.0 0.00 0.00 0.00 78 1008.9
20260505040146 54 202 0.0 0.0 0.00 0.00 0.00 78 1009.1
20260505035146 54 202 0.0 0.0 0.00 0.00 0.00 78 1009.0